SHASTA DAM (USBR) (SHA)

Elevation: 1067' · SACRAMENTO R basin · Operator: US Bureau of Reclamation

Provisional data, subject to change.
Query executed Thursday at 15:04:05   clock

Select a sensor type for a plot of data.
Note: Reservoir Flows are daily averages.

Earlier

Date RES ELE    STORAGE    RES CHG    TOC STO    ABV TOC    OUTFLOW    INFLOW    EVAP    FNF    RIV REL    PPT INC    RAIN    SPILL    DIS PWR   
 FEET   AF   AF   AF   AF   CFS   CFS   CFS   CFS   CFS   INCHES   INCHES   CFS   CFS  
04/29/2015 992.52 2668960 -7525 4552100 -1883140 6924 3314 184 3272 1591 0.00 48.10 0 5333
04/30/2015 992.21 2662479 -6481 4552100 -1889621 6582 3499 184 3112 1754 0.00 48.10 0 4828
05/01/2015 991.83 2654555 -7924 4552100 -1897545 6808 2997 184 3086 1438 0.00 48.10 0 5370
05/02/2015 991.47 2647070 -7485 4552100 -1905030 6501 2917 190 3053 1572 0.00 48.10 0 4929
05/03/2015 991.05 2638339 -- 4552100 -1913761 7249 3030 183 2970 2018 0.00 48.10 0 5231
05/04/2015 990.72 2631509 -6830 4552100 -1920591 6876 3616 183 3166 1582 0.00 48.10 0 5294
05/05/2015 990.26 2621998 -- 4552100 -1930102 7776 3194 213 3141 1813 0.00 48.10 0 5963
05/06/2015 989.84 2613332 -8666 4552100 -1938768 7078 2921 212 3108 1435 0.00 48.10 0 5643
05/07/2015 989.55 2607369 -5963 4552100 -1944731 6691 3921 236 3444 2018 0.00 48.10 0 4673
05/08/2015 989.12 2598527 -8842 4552100 -1953573 7583 3300 175 3151 1634 0.00 48.10 0 5949
05/09/2015 988.68 2589514 -9013 4552100 -1962586 7180 2787 151 2907 1622 0.00 48.10 0 5558
05/10/2015 988.26 2580925 -8589 4552100 -1971175 7085 2935 180 3058 1327 0.00 48.10 0 5758
05/11/2015 987.85 2572571 -8354 4552100 -1979529 7665 3543 90 3172 2049 0.15 48.25 0 5616
05/12/2015 987.49 2565285 -7286 4552100 -1986815 7000 3441 114 3431 1491 0.10 48.35 0 5509
05/13/2015 987.08 2556987 -8298 4552100 -1995113 7299 3163 48 3348 1488 0.24 48.59 0 5811
05/14/2015 986.52 2545611 -11376 4552100 -2006489 8550 2982 167 3293 3047 0.06 48.65 0 5503
05/15/2015 986.25 2540123 -5488 4552100 -2011977 5414 2790 143 3445 0 0.00 48.65 0 5414
05/16/2015 985.90 2533030 -7093 4552100 -2019070 6839 3346 83 3175 e 1297 0.00 48.65 0 5542
05/17/2015 985.52 2525387 -7643 4552100 -2026713 7039 3269 83 3175 e 1503 0.65 49.30 0 5536
05/18/2015 985.08 2516537 -8850 4552100 -2035563 7275 2919 106 3065 1461 0.02 49.32 0 5814
05/19/2015 984.56 2506126 -10411 4552100 -2045974 7598 2449 100 2281 1277 0.00 49.32 0 6321
05/20/2015 984.31 2501125 -5001 4552100 -2050975 6333 3912 100 3153 765 0.00 49.32 0 5568
05/21/2015 983.89 2492736 -8389 4552100 -2059364 7627 3492 94 3057 778 0.11 49.43 0 6849
05/22/2015 983.46 2484182 -8554 4552100 -2067918 7630 3475 158 3576 758 0.00 49.43 0 6872
05/23/2015 982.92 2473449 -10733 4552100 -2078651 7254 1931 88 2870 840 0.00 49.43 0 6414
05/24/2015 982.42 2463559 -9890 4552100 -2088541 6853 2042 175 2859 536 0.00 49.43 0 6317
05/25/2015 981.97 2454661 -8898 4552100 -2097439 6841 2477 122 3096 520 0.00 49.43 0 6321
05/26/2015 981.56 2446595 -8066 4552100 -2105505 6999 3146 214 3054 530 0.00 49.43 0 6469
05/27/2015 981.16 2438727 -7868 4552100 -2113373 6709 2944 202 2814 0 0.00 49.43 0 6709
05/28/2015 -- -- -- -- -- -- -- -- -- -- -- -- -- --

Later | Latest

Warning! This data is preliminary and subject to revision.

Show SHA Map | Plot SHA Data | 1 Month SHA Data | Real-Time SHA Data | SHA Info